owner,sensor,date,latitude,longitude,sea_surface_height_above_sea_level,qcFlag 
TCOON,ioos:station:TCOON:003:1,2016-07-01T00:18:00Z,26.8015,-97.4706,1.23,1111122 
TCOON,ioos:station:TCOON:003:1,2016-07-01T01:12:00Z,26.8015,-97.4706,1.236,1111122 
TCOON,ioos:station:TCOON:003:1,2016-07-01T02:18:00Z,26.8015,-97.4706,1.242,1111122 
TCOON,ioos:station:TCOON:003:1,2016-07-01T03:18:00Z,26.8015,-97.4706,1.243,1111122 
TCOON,ioos:station:TCOON:003:1,2016-07-01T04:18:00Z,26.8015,-97.4706,1.237,1111122 
TCOON,ioos:station:TCOON:003:1,2016-07-01T05:18:00Z,26.8015,-97.4706,1.223,1111122 
TCOON,ioos:station:TCOON:003:1,2016-07-01T06:18:00Z,26.8015,-97.4706,1.224,1111122 
TCOON,ioos:station:TCOON:003:1,2016-07-01T07:18:00Z,26.8015,-97.4706,1.221,1111122 
TCOON,ioos:station:TCOON:003:1,2016-07-01T08:18:00Z,26.8015,-97.4706,1.23,1111122 
TCOON,ioos:station:TCOON:003:1,2016-07-01T09:18:00Z,26.8015,-97.4706,1.246,1111122 
TCOON,ioos:station:TCOON:003:1,2016-07-01T10:18:00Z,26.8015,-97.4706,1.265,1111122 
TCOON,ioos:station:TCOON:003:1,2016-07-01T11:18:00Z,26.8015,-97.4706,1.27,1111122 
TCOON,ioos:station:TCOON:003:1,2016-07-01T12:18:00Z,26.8015,-97.4706,1.271,1111122 
TCOON,ioos:station:TCOON:003:1,2016-07-01T13:18:00Z,26.8015,-97.4706,1.264,1111122 
TCOON,ioos:station:TCOON:003:1,2016-07-01T14:12:00Z,26.8015,-97.4706,1.254,1111122 
TCOON,ioos:station:TCOON:003:1,2016-07-01T15:18:00Z,26.8015,-97.4706,1.247,1111122 
TCOON,ioos:station:TCOON:003:1,2016-07-01T16:18:00Z,26.8015,-97.4706,1.251,1111122 
TCOON,ioos:station:TCOON:003:1,2016-07-01T17:18:00Z,26.8015,-97.4706,1.245,1111122 
TCOON,ioos:station:TCOON:003:1,2016-07-01T18:18:00Z,26.8015,-97.4706,1.251,1111122 
TCOON,ioos:station:TCOON:003:1,2016-07-01T19:18:00Z,26.8015,-97.4706,1.26,1111122 
TCOON,ioos:station:TCOON:003:1,2016-07-01T20:18:00Z,26.8015,-97.4706,1.287,1111122 
TCOON,ioos:station:TCOON:003:1,2016-07-01T21:18:00Z,26.8015,-97.4706,1.32,1111122 
TCOON,ioos:station:TCOON:003:1,2016-07-01T22:18:00Z,26.8015,-97.4706,1.344,1111122 
TCOON,ioos:station:TCOON:003:1,2016-07-02T00:18:00Z,26.8015,-97.4706,1.398,1111122 
TCOON,ioos:station:TCOON:003:1,2016-07-02T01:18:00Z,26.8015,-97.4706,1.387,1111122 
TCOON,ioos:station:TCOON:003:1,2016-07-02T02:18:00Z,26.8015,-97.4706,1.369,1111122 
TCOON,ioos:station:TCOON:003:1,2016-07-02T03:18:00Z,26.8015,-97.4706,1.362,1111122 
TCOON,ioos:station:TCOON:003:1,2016-07-02T04:18:00Z,26.8015,-97.4706,1.362,1111122 
TCOON,ioos:station:TCOON:003:1,2016-07-02T05:18:00Z,26.8015,-97.4706,1.369,1111122 
TCOON,ioos:station:TCOON:003:1,2016-07-02T06:18:00Z,26.8015,-97.4706,1.364,1111122 
TCOON,ioos:station:TCOON:003:1,2016-07-02T07:18:00Z,26.8015,-97.4706,1.335,1111122 
TCOON,ioos:station:TCOON:003:1,2016-07-02T08:18:00Z,26.8015,-97.4706,1.306,1111122 
TCOON,ioos:station:TCOON:003:1,2016-07-02T09:12:00Z,26.8015,-97.4706,1.284,1111122 
TCOON,ioos:station:TCOON:003:1,2016-07-02T10:18:00Z,26.8015,-97.4706,1.285,1111122 
TCOON,ioos:station:TCOON:003:1,2016-07-02T11:18:00Z,26.8015,-97.4706,1.28,1111122 
TCOON,ioos:station:TCOON:003:1,2016-07-02T12:18:00Z,26.8015,-97.4706,1.281,1111122 
TCOON,ioos:station:TCOON:003:1,2016-07-02T13:18:00Z,26.8015,-97.4706,1.284,1111122 
TCOON,ioos:station:TCOON:003:1,2016-07-02T14:18:00Z,26.8015,-97.4706,1.289,1111122 
TCOON,ioos:station:TCOON:003:1,2016-07-02T15:18:00Z,26.8015,-97.4706,1.296,1111122 
TCOON,ioos:station:TCOON:003:1,2016-07-02T16:18:00Z,26.8015,-97.4706,1.316,1111122 
TCOON,ioos:station:TCOON:003:1,2016-07-02T17:18:00Z,26.8015,-97.4706,1.328,1111122 
TCOON,ioos:station:TCOON:003:1,2016-07-02T18:18:00Z,26.8015,-97.4706,1.339,1111122 
TCOON,ioos:station:TCOON:003:1,2016-07-02T19:18:00Z,26.8015,-97.4706,1.364,1111122 
TCOON,ioos:station:TCOON:003:1,2016-07-02T21:18:00Z,26.8015,-97.4706,1.421,1111122 
TCOON,ioos:station:TCOON:003:1,2016-07-02T22:18:00Z,26.8015,-97.4706,1.428,1111122 
TCOON,ioos:station:TCOON:003:1,2016-07-02T23:18:00Z,26.8015,-97.4706,1.431,1111122 
TCOON,ioos:station:TCOON:003:1,2016-07-03T00:18:00Z,26.8015,-97.4706,1.427,1111122 
TCOON,ioos:station:TCOON:003:1,2016-07-03T01:18:00Z,26.8015,-97.4706,1.419,1111122 
TCOON,ioos:station:TCOON:003:1,2016-07-03T02:18:00Z,26.8015,-97.4706,1.418,1111122 
TCOON,ioos:station:TCOON:003:1,2016-07-03T03:18:00Z,26.8015,-97.4706,1.417,1111122 
TCOON,ioos:station:TCOON:003:1,2016-07-03T04:18:00Z,26.8015,-97.4706,1.406,1111122 
TCOON,ioos:station:TCOON:003:1,2016-07-03T05:18:00Z,26.8015,-97.4706,1.387,1111122 
TCOON,ioos:station:TCOON:003:1,2016-07-03T06:18:00Z,26.8015,-97.4706,1.368,1111122 
TCOON,ioos:station:TCOON:003:1,2016-07-03T07:18:00Z,26.8015,-97.4706,1.361,1111122 
TCOON,ioos:station:TCOON:003:1,2016-07-03T08:18:00Z,26.8015,-97.4706,1.341,1111122 
TCOON,ioos:station:TCOON:003:1,2016-07-03T09:18:00Z,26.8015,-97.4706,1.321,1111122 
TCOON,ioos:station:TCOON:003:1,2016-07-03T10:18:00Z,26.8015,-97.4706,1.323,1111122 
TCOON,ioos:station:TCOON:003:1,2016-07-03T11:18:00Z,26.8015,-97.4706,1.324,1111122 
TCOON,ioos:station:TCOON:003:1,2016-07-03T12:18:00Z,26.8015,-97.4706,1.324,1111122 
TCOON,ioos:station:TCOON:003:1,2016-07-03T13:18:00Z,26.8015,-97.4706,1.33,1111122 
TCOON,ioos:station:TCOON:003:1,2016-07-03T14:18:00Z,26.8015,-97.4706,1.339,1111122 
TCOON,ioos:station:TCOON:003:1,2016-07-03T15:18:00Z,26.8015,-97.4706,1.351,1111122 
TCOON,ioos:station:TCOON:003:1,2016-07-03T16:18:00Z,26.8015,-97.4706,1.358,1111122 
TCOON,ioos:station:TCOON:003:1,2016-07-03T17:18:00Z,26.8015,-97.4706,1.389,1111122 
TCOON,ioos:station:TCOON:003:1,2016-07-03T18:18:00Z,26.8015,-97.4706,1.418,1111122 
TCOON,ioos:station:TCOON:003:1,2016-07-03T19:18:00Z,26.8015,-97.4706,1.439,1111122 
TCOON,ioos:station:TCOON:003:1,2016-07-03T20:18:00Z,26.8015,-97.4706,1.463,1111122 
TCOON,ioos:station:TCOON:003:1,2016-07-03T21:18:00Z,26.8015,-97.4706,1.474,1111122 
TCOON,ioos:station:TCOON:003:1,2016-07-03T22:18:00Z,26.8015,-97.4706,1.493,1111122 
TCOON,ioos:station:TCOON:003:1,2016-07-03T23:18:00Z,26.8015,-97.4706,1.495,1111122 
TCOON,ioos:station:TCOON:003:1,2016-07-04T00:18:00Z,26.8015,-97.4706,1.497,1111122 
TCOON,ioos:station:TCOON:003:1,2016-07-04T01:18:00Z,26.8015,-97.4706,1.508,1111122 
TCOON,ioos:station:TCOON:003:1,2016-07-04T02:18:00Z,26.8015,-97.4706,1.513,1111122 
TCOON,ioos:station:TCOON:003:1,2016-07-04T03:18:00Z,26.8015,-97.4706,1.512,1111122 
TCOON,ioos:station:TCOON:003:1,2016-07-04T04:18:00Z,26.8015,-97.4706,1.509,1111122 
TCOON,ioos:station:TCOON:003:1,2016-07-04T05:18:00Z,26.8015,-97.4706,1.467,1111122 
TCOON,ioos:station:TCOON:003:1,2016-07-04T06:18:00Z,26.8015,-97.4706,1.411,1111122 
TCOON,ioos:station:TCOON:003:1,2016-07-04T07:18:00Z,26.8015,-97.4706,1.409,1111122 
TCOON,ioos:station:TCOON:003:1,2016-07-04T08:18:00Z,26.8015,-97.4706,1.411,1111122 
TCOON,ioos:station:TCOON:003:1,2016-07-04T09:18:00Z,26.8015,-97.4706,1.371,1111122 
TCOON,ioos:station:TCOON:003:1,2016-07-04T10:18:00Z,26.8015,-97.4706,1.361,1111122 
TCOON,ioos:station:TCOON:003:1,2016-07-04T11:18:00Z,26.8015,-97.4706,1.362,1111122 
TCOON,ioos:station:TCOON:003:1,2016-07-04T12:18:00Z,26.8015,-97.4706,1.368,1111122 
TCOON,ioos:station:TCOON:003:1,2016-07-04T13:18:00Z,26.8015,-97.4706,1.368,1111122 
TCOON,ioos:station:TCOON:003:1,2016-07-04T14:18:00Z,26.8015,-97.4706,1.365,1111122 
TCOON,ioos:station:TCOON:003:1,2016-07-04T15:18:00Z,26.8015,-97.4706,1.371,1111122 
TCOON,ioos:station:TCOON:003:1,2016-07-04T16:18:00Z,26.8015,-97.4706,1.395,1111122 
TCOON,ioos:station:TCOON:003:1,2016-07-04T17:18:00Z,26.8015,-97.4706,1.419,1111122 
TCOON,ioos:station:TCOON:003:1,2016-07-04T18:18:00Z,26.8015,-97.4706,1.428,1111122 
TCOON,ioos:station:TCOON:003:1,2016-07-04T19:18:00Z,26.8015,-97.4706,1.414,1111122 
TCOON,ioos:station:TCOON:003:1,2016-07-04T20:18:00Z,26.8015,-97.4706,1.422,1111122 
TCOON,ioos:station:TCOON:003:1,2016-07-04T21:18:00Z,26.8015,-97.4706,1.446,1111122 
TCOON,ioos:station:TCOON:003:1,2016-07-04T22:18:00Z,26.8015,-97.4706,1.482,1111122 
TCOON,ioos:station:TCOON:003:1,2016-07-04T23:18:00Z,26.8015,-97.4706,1.507,1111122 
TCOON,ioos:station:TCOON:003:1,2016-07-05T00:18:00Z,26.8015,-97.4706,1.512,1111122 
TCOON,ioos:station:TCOON:003:1,2016-07-05T01:18:00Z,26.8015,-97.4706,1.5,1111122 
TCOON,ioos:station:TCOON:003:1,2016-07-05T02:18:00Z,26.8015,-97.4706,1.497,1111122 
TCOON,ioos:station:TCOON:003:1,2016-07-05T03:18:00Z,26.8015,-97.4706,1.487,1111122 
TCOON,ioos:station:TCOON:003:1,2016-07-05T04:18:00Z,26.8015,-97.4706,1.463,1111122 
TCOON,ioos:station:TCOON:003:1,2016-07-05T05:18:00Z,26.8015,-97.4706,1.45,1111122 
TCOON,ioos:station:TCOON:003:1,2016-07-05T06:18:00Z,26.8015,-97.4706,1.442,1111122 
TCOON,ioos:station:TCOON:003:1,2016-07-05T07:18:00Z,26.8015,-97.4706,1.443,1111122 
TCOON,ioos:station:TCOON:003:1,2016-07-05T08:18:00Z,26.8015,-97.4706,1.451,1111122 
TCOON,ioos:station:TCOON:003:1,2016-07-05T09:18:00Z,26.8015,-97.4706,1.417,1111122 
TCOON,ioos:station:TCOON:003:1,2016-07-05T10:18:00Z,26.8015,-97.4706,1.364,1111122 
TCOON,ioos:station:TCOON:003:1,2016-07-05T11:18:00Z,26.8015,-97.4706,1.323,1111122 
TCOON,ioos:station:TCOON:003:1,2016-07-05T12:18:00Z,26.8015,-97.4706,1.31,1111122 
TCOON,ioos:station:TCOON:003:1,2016-07-05T13:18:00Z,26.8015,-97.4706,1.311,1111122 
TCOON,ioos:station:TCOON:003:1,2016-07-05T14:18:00Z,26.8015,-97.4706,1.348,1111122 
TCOON,ioos:station:TCOON:003:1,2016-07-05T15:18:00Z,26.8015,-97.4706,1.373,1111122 
TCOON,ioos:station:TCOON:003:1,2016-07-05T16:18:00Z,26.8015,-97.4706,1.377,1111122 
TCOON,ioos:station:TCOON:003:1,2016-07-05T17:18:00Z,26.8015,-97.4706,1.378,1111122 
TCOON,ioos:station:TCOON:003:1,2016-07-05T18:18:00Z,26.8015,-97.4706,1.394,1111122 
TCOON,ioos:station:TCOON:003:1,2016-07-05T21:18:00Z,26.8015,-97.4706,1.463,1111122 
TCOON,ioos:station:TCOON:003:1,2016-07-05T22:18:00Z,26.8015,-97.4706,1.473,1111122 
TCOON,ioos:station:TCOON:003:1,2016-07-05T23:18:00Z,26.8015,-97.4706,1.473,1111122 
TCOON,ioos:station:TCOON:003:1,2016-07-06T00:18:00Z,26.8015,-97.4706,1.477,1111122 
TCOON,ioos:station:TCOON:003:1,2016-07-06T01:18:00Z,26.8015,-97.4706,1.473,1111122 
TCOON,ioos:station:TCOON:003:1,2016-07-06T02:18:00Z,26.8015,-97.4706,1.467,1111122 
TCOON,ioos:station:TCOON:003:1,2016-07-06T03:18:00Z,26.8015,-97.4706,1.47,1111122 
TCOON,ioos:station:TCOON:003:1,2016-07-06T04:18:00Z,26.8015,-97.4706,1.467,1111122 
TCOON,ioos:station:TCOON:003:1,2016-07-06T05:18:00Z,26.8015,-97.4706,1.452,1111122 
TCOON,ioos:station:TCOON:003:1,2016-07-06T06:18:00Z,26.8015,-97.4706,1.423,1111122 
TCOON,ioos:station:TCOON:003:1,2016-07-06T07:18:00Z,26.8015,-97.4706,1.424,1111122 
TCOON,ioos:station:TCOON:003:1,2016-07-06T08:18:00Z,26.8015,-97.4706,1.43,1111122 
TCOON,ioos:station:TCOON:003:1,2016-07-06T09:18:00Z,26.8015,-97.4706,1.414,1111122 
TCOON,ioos:station:TCOON:003:1,2016-07-06T10:18:00Z,26.8015,-97.4706,1.394,1111122 
TCOON,ioos:station:TCOON:003:1,2016-07-06T11:18:00Z,26.8015,-97.4706,1.343,1111122 
TCOON,ioos:station:TCOON:003:1,2016-07-06T12:18:00Z,26.8015,-97.4706,1.302,1111122 
TCOON,ioos:station:TCOON:003:1,2016-07-06T13:18:00Z,26.8015,-97.4706,1.311,1111122 
TCOON,ioos:station:TCOON:003:1,2016-07-06T14:18:00Z,26.8015,-97.4706,1.333,1111122 
TCOON,ioos:station:TCOON:003:1,2016-07-06T15:18:00Z,26.8015,-97.4706,1.374,1111122 
TCOON,ioos:station:TCOON:003:1,2016-07-06T16:18:00Z,26.8015,-97.4706,1.411,1111122 
TCOON,ioos:station:TCOON:003:1,2016-07-06T17:18:00Z,26.8015,-97.4706,1.441,1111122 
TCOON,ioos:station:TCOON:003:1,2016-07-06T18:18:00Z,26.8015,-97.4706,1.467,1111122 
TCOON,ioos:station:TCOON:003:1,2016-07-06T19:18:00Z,26.8015,-97.4706,1.485,1111122 
TCOON,ioos:station:TCOON:003:1,2016-07-06T20:18:00Z,26.8015,-97.4706,1.486,1111122 
TCOON,ioos:station:TCOON:003:1,2016-07-06T21:18:00Z,26.8015,-97.4706,1.481,1111122 
TCOON,ioos:station:TCOON:003:1,2016-07-06T22:18:00Z,26.8015,-97.4706,1.489,1111122 
TCOON,ioos:station:TCOON:003:1,2016-07-06T23:18:00Z,26.8015,-97.4706,1.491,1111122 
TCOON,ioos:station:TCOON:003:1,2016-07-07T00:18:00Z,26.8015,-97.4706,1.486,1111122 
TCOON,ioos:station:TCOON:003:1,2016-07-07T01:18:00Z,26.8015,-97.4706,1.509,1111122 
TCOON,ioos:station:TCOON:003:1,2016-07-07T02:18:00Z,26.8015,-97.4706,1.501,1111122 
TCOON,ioos:station:TCOON:003:1,2016-07-07T03:18:00Z,26.8015,-97.4706,1.468,1111122 
TCOON,ioos:station:TCOON:003:1,2016-07-07T04:18:00Z,26.8015,-97.4706,1.443,1111122 
TCOON,ioos:station:TCOON:003:1,2016-07-07T05:18:00Z,26.8015,-97.4706,1.428,1111122 
TCOON,ioos:station:TCOON:003:1,2016-07-07T06:18:00Z,26.8015,-97.4706,1.425,1111122 
TCOON,ioos:station:TCOON:003:1,2016-07-07T07:18:00Z,26.8015,-97.4706,1.411,1111122 
TCOON,ioos:station:TCOON:003:1,2016-07-07T08:18:00Z,26.8015,-97.4706,1.382,1111122 
TCOON,ioos:station:TCOON:003:1,2016-07-07T09:18:00Z,26.8015,-97.4706,1.333,1111122 
TCOON,ioos:station:TCOON:003:1,2016-07-07T10:18:00Z,26.8015,-97.4706,1.312,1111122 
TCOON,ioos:station:TCOON:003:1,2016-07-07T11:18:00Z,26.8015,-97.4706,1.311,1111122 
TCOON,ioos:station:TCOON:003:1,2016-07-07T12:18:00Z,26.8015,-97.4706,1.331,1111122 
TCOON,ioos:station:TCOON:003:1,2016-07-07T13:18:00Z,26.8015,-97.4706,1.335,1111122 
TCOON,ioos:station:TCOON:003:1,2016-07-07T14:18:00Z,26.8015,-97.4706,1.336,1111122 
TCOON,ioos:station:TCOON:003:1,2016-07-07T15:18:00Z,26.8015,-97.4706,1.35,1111122 
TCOON,ioos:station:TCOON:003:1,2016-07-07T16:18:00Z,26.8015,-97.4706,1.367,1111122 
TCOON,ioos:station:TCOON:003:1,2016-07-07T17:18:00Z,26.8015,-97.4706,1.384,1111122 
TCOON,ioos:station:TCOON:003:1,2016-07-07T18:18:00Z,26.8015,-97.4706,1.402,1111122 
TCOON,ioos:station:TCOON:003:1,2016-07-07T19:18:00Z,26.8015,-97.4706,1.428,1111122 
TCOON,ioos:station:TCOON:003:1,2016-07-07T20:18:00Z,26.8015,-97.4706,1.451,1111122 
TCOON,ioos:station:TCOON:003:1,2016-07-07T21:18:00Z,26.8015,-97.4706,1.454,1111122 
TCOON,ioos:station:TCOON:003:1,2016-07-07T22:18:00Z,26.8015,-97.4706,1.448,1111122 
TCOON,ioos:station:TCOON:003:1,2016-07-07T23:18:00Z,26.8015,-97.4706,1.449,1111122 
TCOON,ioos:station:TCOON:003:1,2016-07-08T00:18:00Z,26.8015,-97.4706,1.458,1111122 
TCOON,ioos:station:TCOON:003:1,2016-07-08T01:18:00Z,26.8015,-97.4706,1.465,1111122 
TCOON,ioos:station:TCOON:003:1,2016-07-08T02:18:00Z,26.8015,-97.4706,1.442,1111122 
TCOON,ioos:station:TCOON:003:1,2016-07-08T03:18:00Z,26.8015,-97.4706,1.403,1111122 
TCOON,ioos:station:TCOON:003:1,2016-07-08T04:24:00Z,26.8015,-97.4706,1.379,1111122 
TCOON,ioos:station:TCOON:003:1,2016-07-08T05:18:00Z,26.8015,-97.4706,1.375,1111122 
TCOON,ioos:station:TCOON:003:1,2016-07-08T06:18:00Z,26.8015,-97.4706,1.381,1111122 
TCOON,ioos:station:TCOON:003:1,2016-07-08T07:18:00Z,26.8015,-97.4706,1.392,1111122 
TCOON,ioos:station:TCOON:003:1,2016-07-08T08:18:00Z,26.8015,-97.4706,1.387,1111122 
TCOON,ioos:station:TCOON:003:1,2016-07-08T09:18:00Z,26.8015,-97.4706,1.366,1111122 
TCOON,ioos:station:TCOON:003:1,2016-07-08T10:18:00Z,26.8015,-97.4706,1.349,1111122 
TCOON,ioos:station:TCOON:003:1,2016-07-08T11:18:00Z,26.8015,-97.4706,1.317,1111122 
TCOON,ioos:station:TCOON:003:1,2016-07-08T12:18:00Z,26.8015,-97.4706,1.306,1111122 
TCOON,ioos:station:TCOON:003:1,2016-07-08T13:18:00Z,26.8015,-97.4706,1.306,1111122 
TCOON,ioos:station:TCOON:003:1,2016-07-08T14:18:00Z,26.8015,-97.4706,1.296,1111122 
TCOON,ioos:station:TCOON:003:1,2016-07-08T15:18:00Z,26.8015,-97.4706,1.301,1111122 
TCOON,ioos:station:TCOON:003:1,2016-07-08T16:18:00Z,26.8015,-97.4706,1.324,1111122 
TCOON,ioos:station:TCOON:003:1,2016-07-08T17:18:00Z,26.8015,-97.4706,1.352,1111122 
TCOON,ioos:station:TCOON:003:1,2016-07-08T18:18:00Z,26.8015,-97.4706,1.373,1111122 
TCOON,ioos:station:TCOON:003:1,2016-07-08T19:18:00Z,26.8015,-97.4706,1.379,1111122 
TCOON,ioos:station:TCOON:003:1,2016-07-08T20:18:00Z,26.8015,-97.4706,1.374,1111122 
TCOON,ioos:station:TCOON:003:1,2016-07-08T21:18:00Z,26.8015,-97.4706,1.371,1111122 
TCOON,ioos:station:TCOON:003:1,2016-07-08T22:18:00Z,26.8015,-97.4706,1.379,1111122 
TCOON,ioos:station:TCOON:003:1,2016-07-08T23:18:00Z,26.8015,-97.4706,1.395,1111122 
TCOON,ioos:station:TCOON:003:1,2016-07-09T00:18:00Z,26.8015,-97.4706,1.424,1111122 
TCOON,ioos:station:TCOON:003:1,2016-07-09T01:18:00Z,26.8015,-97.4706,1.422,1111122 
TCOON,ioos:station:TCOON:003:1,2016-07-09T02:18:00Z,26.8015,-97.4706,1.394,1111122 
TCOON,ioos:station:TCOON:003:1,2016-07-09T03:18:00Z,26.8015,-97.4706,1.373,1111122 
TCOON,ioos:station:TCOON:003:1,2016-07-09T04:18:00Z,26.8015,-97.4706,1.369,1111122 
TCOON,ioos:station:TCOON:003:1,2016-07-09T05:18:00Z,26.8015,-97.4706,1.369,1111122 
TCOON,ioos:station:TCOON:003:1,2016-07-09T06:18:00Z,26.8015,-97.4706,1.366,1111122 
TCOON,ioos:station:TCOON:003:1,2016-07-09T07:18:00Z,26.8015,-97.4706,1.367,1111122 
TCOON,ioos:station:TCOON:003:1,2016-07-09T08:18:00Z,26.8015,-97.4706,1.347,1111122 
TCOON,ioos:station:TCOON:003:1,2016-07-09T09:18:00Z,26.8015,-97.4706,1.335,1111122 
TCOON,ioos:station:TCOON:003:1,2016-07-09T10:18:00Z,26.8015,-97.4706,1.332,1111122 
TCOON,ioos:station:TCOON:003:1,2016-07-09T11:18:00Z,26.8015,-97.4706,1.32,1111122 
TCOON,ioos:station:TCOON:003:1,2016-07-09T12:18:00Z,26.8015,-97.4706,1.277,1111122 
TCOON,ioos:station:TCOON:003:1,2016-07-09T13:18:00Z,26.8015,-97.4706,1.263,1111122 
TCOON,ioos:station:TCOON:003:1,2016-07-09T14:18:00Z,26.8015,-97.4706,1.257,1111122 
TCOON,ioos:station:TCOON:003:1,2016-07-09T15:18:00Z,26.8015,-97.4706,1.264,1111122 
TCOON,ioos:station:TCOON:003:1,2016-07-09T16:18:00Z,26.8015,-97.4706,1.282,1111122 
TCOON,ioos:station:TCOON:003:1,2016-07-09T17:18:00Z,26.8015,-97.4706,1.295,1111122 
TCOON,ioos:station:TCOON:003:1,2016-07-09T18:18:00Z,26.8015,-97.4706,1.306,1111122 
TCOON,ioos:station:TCOON:003:1,2016-07-09T19:18:00Z,26.8015,-97.4706,1.323,1111122 
TCOON,ioos:station:TCOON:003:1,2016-07-09T20:18:00Z,26.8015,-97.4706,1.345,1111122 
TCOON,ioos:station:TCOON:003:1,2016-07-09T21:18:00Z,26.8015,-97.4706,1.369,1111122 
TCOON,ioos:station:TCOON:003:1,2016-07-09T22:18:00Z,26.8015,-97.4706,1.389,1111122 
TCOON,ioos:station:TCOON:003:1,2016-07-09T23:18:00Z,26.8015,-97.4706,1.395,1111122 
TCOON,ioos:station:TCOON:003:1,2016-07-10T00:18:00Z,26.8015,-97.4706,1.388,1111122 
TCOON,ioos:station:TCOON:003:1,2016-07-10T01:18:00Z,26.8015,-97.4706,1.366,1111122 
TCOON,ioos:station:TCOON:003:1,2016-07-10T02:18:00Z,26.8015,-97.4706,1.352,1111122 
TCOON,ioos:station:TCOON:003:1,2016-07-10T03:18:00Z,26.8015,-97.4706,1.329,1111122 
TCOON,ioos:station:TCOON:003:1,2016-07-10T04:24:00Z,26.8015,-97.4706,1.332,1111122 
TCOON,ioos:station:TCOON:003:1,2016-07-10T05:18:00Z,26.8015,-97.4706,1.339,1111122 
TCOON,ioos:station:TCOON:003:1,2016-07-10T06:18:00Z,26.8015,-97.4706,1.365,1111122 
TCOON,ioos:station:TCOON:003:1,2016-07-10T07:18:00Z,26.8015,-97.4706,1.378,1111122 
TCOON,ioos:station:TCOON:003:1,2016-07-10T08:18:00Z,26.8015,-97.4706,1.381,1111122 
TCOON,ioos:station:TCOON:003:1,2016-07-10T09:18:00Z,26.8015,-97.4706,1.368,1111122 
TCOON,ioos:station:TCOON:003:1,2016-07-10T10:18:00Z,26.8015,-97.4706,1.31,1111122 
TCOON,ioos:station:TCOON:003:1,2016-07-10T11:18:00Z,26.8015,-97.4706,1.258,1111122 
TCOON,ioos:station:TCOON:003:1,2016-07-10T12:18:00Z,26.8015,-97.4706,1.241,1111122 
TCOON,ioos:station:TCOON:003:1,2016-07-10T13:18:00Z,26.8015,-97.4706,1.255,1111122 
TCOON,ioos:station:TCOON:003:1,2016-07-10T14:18:00Z,26.8015,-97.4706,1.284,1111122 
TCOON,ioos:station:TCOON:003:1,2016-07-10T15:18:00Z,26.8015,-97.4706,1.316,1111122 
TCOON,ioos:station:TCOON:003:1,2016-07-10T16:18:00Z,26.8015,-97.4706,1.336,1111122 
TCOON,ioos:station:TCOON:003:1,2016-07-10T17:18:00Z,26.8015,-97.4706,1.331,1111122 
TCOON,ioos:station:TCOON:003:1,2016-07-10T18:18:00Z,26.8015,-97.4706,1.324,1111122 
TCOON,ioos:station:TCOON:003:1,2016-07-10T19:18:00Z,26.8015,-97.4706,1.328,1111122 
TCOON,ioos:station:TCOON:003:1,2016-07-10T20:18:00Z,26.8015,-97.4706,1.367,1111122 
TCOON,ioos:station:TCOON:003:1,2016-07-10T21:18:00Z,26.8015,-97.4706,1.408,1111122 
TCOON,ioos:station:TCOON:003:1,2016-07-10T22:18:00Z,26.8015,-97.4706,1.435,1111122 
TCOON,ioos:station:TCOON:003:1,2016-07-10T23:18:00Z,26.8015,-97.4706,1.453,1111122 
TCOON,ioos:station:TCOON:003:1,2016-07-11T00:18:00Z,26.8015,-97.4706,1.463,1111122 
TCOON,ioos:station:TCOON:003:1,2016-07-11T01:18:00Z,26.8015,-97.4706,1.486,1111122 
TCOON,ioos:station:TCOON:003:1,2016-07-11T02:18:00Z,26.8015,-97.4706,1.485,1111122 
TCOON,ioos:station:TCOON:003:1,2016-07-11T03:18:00Z,26.8015,-97.4706,1.477,1111122 
TCOON,ioos:station:TCOON:003:1,2016-07-11T04:18:00Z,26.8015,-97.4706,1.456,1111122 
TCOON,ioos:station:TCOON:003:1,2016-07-11T05:18:00Z,26.8015,-97.4706,1.428,1111122 
TCOON,ioos:station:TCOON:003:1,2016-07-11T06:18:00Z,26.8015,-97.4706,1.409,1111122 
TCOON,ioos:station:TCOON:003:1,2016-07-11T07:18:00Z,26.8015,-97.4706,1.4,1111122 
TCOON,ioos:station:TCOON:003:1,2016-07-11T08:18:00Z,26.8015,-97.4706,1.4,1111122 
TCOON,ioos:station:TCOON:003:1,2016-07-11T09:18:00Z,26.8015,-97.4706,1.388,1111122 
TCOON,ioos:station:TCOON:003:1,2016-07-11T10:18:00Z,26.8015,-97.4706,1.359,1111122 
TCOON,ioos:station:TCOON:003:1,2016-07-11T11:18:00Z,26.8015,-97.4706,1.343,1111122 
TCOON,ioos:station:TCOON:003:1,2016-07-11T12:18:00Z,26.8015,-97.4706,1.348,1111122 
TCOON,ioos:station:TCOON:003:1,2016-07-11T13:18:00Z,26.8015,-97.4706,1.349,1111122 
TCOON,ioos:station:TCOON:003:1,2016-07-11T14:18:00Z,26.8015,-97.4706,1.339,1111122 
TCOON,ioos:station:TCOON:003:1,2016-07-11T15:18:00Z,26.8015,-97.4706,1.327,1111122 
TCOON,ioos:station:TCOON:003:1,2016-07-11T16:18:00Z,26.8015,-97.4706,1.323,1111122 
TCOON,ioos:station:TCOON:003:1,2016-07-11T17:18:00Z,26.8015,-97.4706,1.345,1111122 
TCOON,ioos:station:TCOON:003:1,2016-07-11T18:18:00Z,26.8015,-97.4706,1.375,1111122 
TCOON,ioos:station:TCOON:003:1,2016-07-11T19:18:00Z,26.8015,-97.4706,1.411,1111122 
TCOON,ioos:station:TCOON:003:1,2016-07-11T20:18:00Z,26.8015,-97.4706,1.435,1111122 
TCOON,ioos:station:TCOON:003:1,2016-07-11T21:18:00Z,26.8015,-97.4706,1.452,1111122 
TCOON,ioos:station:TCOON:003:1,2016-07-11T22:18:00Z,26.8015,-97.4706,1.456,1111122 
TCOON,ioos:station:TCOON:003:1,2016-07-11T23:18:00Z,26.8015,-97.4706,1.452,1111122 
TCOON,ioos:station:TCOON:003:1,2016-07-12T00:18:00Z,26.8015,-97.4706,1.454,1111122 
TCOON,ioos:station:TCOON:003:1,2016-07-12T01:18:00Z,26.8015,-97.4706,1.432,1111122 
TCOON,ioos:station:TCOON:003:1,2016-07-12T02:18:00Z,26.8015,-97.4706,1.421,1111122 
TCOON,ioos:station:TCOON:003:1,2016-07-12T03:18:00Z,26.8015,-97.4706,1.391,1111122 
TCOON,ioos:station:TCOON:003:1,2016-07-12T04:18:00Z,26.8015,-97.4706,1.373,1111122 
TCOON,ioos:station:TCOON:003:1,2016-07-12T05:18:00Z,26.8015,-97.4706,1.355,1111122 
TCOON,ioos:station:TCOON:003:1,2016-07-12T06:18:00Z,26.8015,-97.4706,1.338,1111122 
TCOON,ioos:station:TCOON:003:1,2016-07-12T07:18:00Z,26.8015,-97.4706,1.333,1111122 
TCOON,ioos:station:TCOON:003:1,2016-07-12T08:18:00Z,26.8015,-97.4706,1.313,1111122 
TCOON,ioos:station:TCOON:003:1,2016-07-12T09:18:00Z,26.8015,-97.4706,1.291,1111122 
TCOON,ioos:station:TCOON:003:1,2016-07-12T10:18:00Z,26.8015,-97.4706,1.275,1111122 
TCOON,ioos:station:TCOON:003:1,2016-07-12T11:18:00Z,26.8015,-97.4706,1.259,1111122 
TCOON,ioos:station:TCOON:003:1,2016-07-12T12:18:00Z,26.8015,-97.4706,1.247,1111122 
TCOON,ioos:station:TCOON:003:1,2016-07-12T13:18:00Z,26.8015,-97.4706,1.252,1111122 
TCOON,ioos:station:TCOON:003:1,2016-07-12T14:18:00Z,26.8015,-97.4706,1.272,1111122 
TCOON,ioos:station:TCOON:003:1,2016-07-12T15:18:00Z,26.8015,-97.4706,1.273,1111122 
TCOON,ioos:station:TCOON:003:1,2016-07-12T16:18:00Z,26.8015,-97.4706,1.289,1111122 
TCOON,ioos:station:TCOON:003:1,2016-07-12T17:18:00Z,26.8015,-97.4706,1.314,1111122 
TCOON,ioos:station:TCOON:003:1,2016-07-12T18:18:00Z,26.8015,-97.4706,1.344,1111122 
TCOON,ioos:station:TCOON:003:1,2016-07-12T19:18:00Z,26.8015,-97.4706,1.363,1111122 
TCOON,ioos:station:TCOON:003:1,2016-07-12T20:18:00Z,26.8015,-97.4706,1.378,1111122 
TCOON,ioos:station:TCOON:003:1,2016-07-12T21:18:00Z,26.8015,-97.4706,1.398,1111122 
TCOON,ioos:station:TCOON:003:1,2016-07-12T22:18:00Z,26.8015,-97.4706,1.421,1111122 
TCOON,ioos:station:TCOON:003:1,2016-07-12T23:18:00Z,26.8015,-97.4706,1.422,1111122 
TCOON,ioos:station:TCOON:003:1,2016-07-13T00:18:00Z,26.8015,-97.4706,1.392,1111122 